Weather History for LIVR - June, 2013

Change the Weather History Date:

Thursday, June 20, 2013

  Actual Average Record
Temperature  
Mean Temperature 56 °F -  
Max Temperature 63 °F 58 °F 68 °F (2002)
Min Temperature 50 °F 44 °F 32 °F (2001)
Degree Days  
Heating Degree Days 8    
Growing Degree Days 6 (Base 50)    
Moisture  
Dew Point 46 °F    
Average Humidity 69    
Maximum Humidity 94    
Minimum Humidity 40    
Precipitation  
Precipitation 0.02 in - - ()
Sea Level Pressure  
Sea Level Pressure 30.28 in    
Wind  
Wind Speed 5 mph ()    
Max Wind Speed 16 mph    
Max Gust Speed 23 mph    
Visibility 7.0 miles    
Events Fog , Rain , Thunderstorm    
Averages and records for this station are not official NWS values.
T = Trace of Precipitation, MM = Missing Value Source: Averaged Metar Reports

Daily Weather History Graph

Daily Weather History Graph

Search for Another Location

Airport or City:

Trip Planner

Search our weather history database for the weather conditions in past years. The results will help you decide how hot, cold, wet, or windy it might be!

Date:

Astronomy

Jun. 20, 2013 Rise Set
Actual Time 5:20 AM CEST 9:08 PM CEST
Civil Twilight 4:41 AM CEST 9:47 PM CEST
Nautical Twilight 3:48 AM CEST 10:40 PM CEST
Astronomical Twilight 2:33 AM CEST 11:55 PM CEST
Moon 5:44 PM CEST (6/20) 2:43 AM CEST (6/20)
Length of Visible Light 17h 05m
Length of Day
15h 47m
Waxing Gibbous, 87% of the Moon is Illuminated
Jun 20
Waxing Gibbous
Jun 23
Full
Jun 30
Last Quarter
Jul 8
New
Jul 16
First Quarter

Hourly Weather History & Observations

Time (CEST) Temp. Dew Point Humidity Pressure Visibility Wind Dir Wind Speed Gust Speed Precip Events Conditions
1:55 AM 51.8 °F 48.2 °F 88% 30.33 in - Calm Calm - N/A   Clear
2:00 AM 52 °F 47 °F 79%  in 6 mi Calm Calm - -  
4:55 AM 51.8 °F 46.4 °F 82% 30.30 in - Calm Calm - N/A   Clear
5:00 AM 51 °F 47 °F 80%  in 6 mi Calm Calm - -  
5:55 AM 32.0 °F 28.4 °F 87% 30.21 in - Calm Calm - N/A   Clear
6:55 AM 51.8 °F 48.2 °F 88% 30.21 in - North 3.5 mph - N/A   Clear
7:55 AM 53.6 °F 48.2 °F 82% 30.30 in - NNE 2.3 mph - N/A   Clear
8:00 AM 54 °F 48 °F 72%  in 12 mi NNE 2.3 mph - -  
8:55 AM 55.4 °F 46.4 °F 72% 30.30 in - Calm Calm - N/A   Clear
9:55 AM 57.2 °F 44.6 °F 63% 30.30 in 6.2 mi ESE 8.1 mph - N/A   Partly Cloudy
10:55 AM 60.8 °F 48.2 °F 63% 30.30 in 6.2 mi ESE 8.1 mph - N/A   Partly Cloudy
11:00 AM 60 °F 48 °F 56%  in 12 mi ESE 8.1 mph - -   Scattered Clouds
11:55 AM 60.8 °F 46.4 °F 59% 30.30 in 6.2 mi SE 13.8 mph - N/A   Scattered Clouds
12:55 PM 62.6 °F 48.2 °F 59% 30.30 in 6.2 mi SE 15.0 mph - N/A   Scattered Clouds
1:55 PM 60.8 °F 46.4 °F 59% 30.30 in 6.2 mi SSE 12.7 mph - N/A   Scattered Clouds
2:00 PM 61 °F 47 °F 49%  in 12 mi SSE 12.7 mph - -   Partly Cloudy
2:55 PM 62.6 °F 48.2 °F 59% 30.30 in 6.2 mi SSE 15.0 mph - N/A   Scattered Clouds
3:55 PM 60.8 °F 44.6 °F 55% 30.30 in 6.2 mi SE 16.1 mph - N/A   Scattered Clouds
4:55 PM 60.8 °F 44.6 °F 55% 30.27 in 6.2 mi SSE 13.8 mph - N/A   Scattered Clouds
5:00 PM 62 °F 44 °F 40%  in 12 mi SSE 13.8 mph - -   Partly Cloudy
5:55 PM 60.8 °F 44.6 °F 55% 30.27 in 6.2 mi South 10.4 mph 23.0 mph N/A   Scattered Clouds
6:55 PM 59.0 °F 44.6 °F 59% 30.27 in 6.2 mi SE 10.4 mph - N/A   Scattered Clouds
7:24 PM 55.4 °F 48.2 °F 77% 30.24 in 6.2 mi SE 13.8 mph - N/A Rain , Thunderstorm Light Thunderstorms and Rain
7:55 PM 53.6 °F 50.0 °F 88% 30.24 in 6.2 mi ESE 11.5 mph - N/A   Partly Cloudy
8:00 PM 54 °F 51 °F 85%  in 6 mi ESE 11.5 mph - - Rain , Thunderstorm Heavy Thunderstorms and Rain
10:55 PM 51.8 °F 50.0 °F 94% 30.24 in 0.2 mi SSW 5.8 mph - N/A Fog , Rain , Thunderstorm Light Thunderstorms and Rain